Alamosa, CO

3:19 PM MST on December 15, 2017 (GMT -0700)
San Luis Valley Regional / Bergman Field

Weather History for KALS - January, 2013

Change the Weather History Date:

Tuesday, January 1, 2013

  Actual Average Record
Temperature  
Mean Temperature -3 °F 16 °F  
Max Temperature 16 °F 34 °F 51 °F (1981)
Min Temperature -23 °F -2 °F -31 °F (1988)
Degree Days  
Heating Degree Days 68 49  
Month to date heating degree days 68 49  
Since 1 July heating degree days 3762 3686  
Cooling Degree Days 0 0  
Month to date cooling degree days 0 0  
Year to date cooling degree days 0 0  
Moisture  
Dew Point -4 °F    
Average Humidity 78    
Maximum Humidity 91    
Minimum Humidity 64    
Precipitation  
Precipitation 0.01 in 0.01 in 0.33 in (1974)
Month to date precipitation 0.01 0.01  
Year to date precipitation 0.01 0.01  
Snow  
Snow 0.00 in 0.10 in 6.40 in (1974)
Month to date snowfall 0.1  
Since 1 July snowfall 12.1 10.4  
Snow Depth 0.00 in    
Sea Level Pressure  
Sea Level Pressure 30.18 in    
Wind  
Wind Speed 3 mph (NW)    
Max Wind Speed 9 mph    
Max Gust Speed 10 mph    
Visibility 5 miles    
Events Fog , Snow    
T = Trace of Precipitation, MM = Missing Value Source: NWS Daily Summary

Daily Weather History Graph

Daily Weather History Graph

Search for Another Location

Airport or City:

Trip Planner

Search our weather history database for the weather conditions in past years. The results will help you decide how hot, cold, wet, or windy it might be!

Date:

Astronomy

Jan. 01, 2013 Rise Set
Actual Time 7:18 AM MST 4:56 PM MST
Civil Twilight 6:48 AM MST 5:25 PM MST
Nautical Twilight 6:16 AM MST 5:58 PM MST
Astronomical Twilight 5:44 AM MST 6:30 PM MST
Moon 9:24 PM MST (1/1) 9:36 AM MST (1/1)
Length of Visible Light 10h 36m
Length of Day
9h 38m
Waning Gibbous, 83% of the Moon is Illuminated
Jan 1
Waning Gibbous
Jan 4
Last Quarter
Jan 11
New
Jan 18
First Quarter
Jan 26
Full

Hourly Weather History & Observations

Time (MST) Temp. Windchill Dew Point Humidity Pressure Visibility Wind Dir Wind Speed Gust Speed Precip Events Conditions
12:19 AM 6.8 °F - 3.2 °F 85% 29.92 in 0.8 mi Calm Calm - 0.00 in Snow Light Snow
12:41 AM 8.6 °F 0.1 °F 5.0 °F 85% 29.93 in 1.2 mi NE 4.6 mph - 0.00 in Snow Light Snow
12:52 AM 9.0 °F 0.6 °F 6.1 °F 88% 30.10 in 2.5 mi ENE 4.6 mph - 0.00 in Snow Light Snow
1:07 AM 10.4 °F 4.0 °F 6.8 °F 85% 29.93 in 1.5 mi ESE 3.5 mph - 0.00 in Snow Light Snow
1:33 AM 10.4 °F 4.0 °F 8.6 °F 92% 29.94 in 2.5 mi NE 3.5 mph - 0.00 in Snow Light Snow
1:42 AM 10.4 °F 4.0 °F 6.8 °F 85% 29.94 in 3.0 mi ENE 3.5 mph - 0.00 in Snow Light Snow
1:52 AM 10.0 °F 3.6 °F 7.0 °F 87% 30.10 in 3.0 mi East 3.5 mph - 0.00 in Snow Light Snow
1:59 AM 10.4 °F 4.0 °F 6.8 °F 85% 29.94 in 2.0 mi East 3.5 mph - 0.00 in Snow Light Snow
2:18 AM 6.8 °F -0.1 °F 3.2 °F 85% 29.95 in 4.0 mi ESE 3.5 mph - 0.00 in Snow Light Snow
2:36 AM 5.0 °F - 1.4 °F 85% 29.95 in 10.0 mi Calm Calm - 0.00 in   Scattered Clouds
2:52 AM 3.9 °F - 1.9 °F 91% 30.16 in 10.0 mi Calm Calm - 0.00 in   Mostly Cloudy
3:52 AM 3.9 °F -3.4 °F 1.9 °F 91% 30.17 in 8.0 mi NNW 3.5 mph - 0.00 in   Overcast
4:52 AM 1.0 °F - -2.9 °F 83% 30.21 in 7.0 mi Calm Calm - 0.00 in   Overcast
5:24 AM -0.4 °F - -4.0 °F 85% 29.99 in 5.0 mi Calm Calm - N/A   Overcast
5:52 AM -0.9 °F - -5.1 °F 83% 30.24 in 8.0 mi Calm Calm - N/A   Overcast
6:13 AM -2.2 °F -10.4 °F -5.8 °F 85% 30.00 in 2.0 mi ENE 3.5 mph - 0.00 in Snow Light Snow
6:33 AM -4.0 °F - -7.6 °F 85% 30.02 in 6.0 mi Calm Calm - 0.00 in   Overcast
6:47 AM -4.0 °F - -7.6 °F 85% 30.02 in 6.0 mi Calm Calm - 0.00 in   Overcast
6:52 AM -2.9 °F -13.3 °F -8.0 °F 79% 30.29 in 6.0 mi NW 4.6 mph - 0.00 in   Haze
7:15 AM -2.2 °F - -5.8 °F 85% 30.04 in 1.8 mi Calm Calm - 0.00 in Snow Light Snow
7:23 AM -2.2 °F - -5.8 °F 85% 30.04 in 1.5 mi Calm Calm - 0.00 in Snow Light Snow
7:33 AM -2.2 °F - -7.6 °F 78% 30.04 in 1.5 mi Calm Calm - 0.00 in Snow Light Snow
7:52 AM -2.0 °F - -6.0 °F 83% 30.31 in 1.5 mi Calm Calm - 0.01 in Snow Light Snow
8:07 AM -2.2 °F -12.5 °F -5.8 °F 85% 30.06 in 2.0 mi WNW 4.6 mph - 0.00 in Snow Light Snow
8:23 AM -0.4 °F -10.4 °F -2.2 °F 92% 30.06 in 7.0 mi WNW 4.6 mph - 0.00 in   Overcast
8:52 AM 3.9 °F -5.3 °F 1.0 °F 88% 30.31 in 3.0 mi NW 4.6 mph - 0.00 in Snow Light Snow
8:59 AM 3.2 °F -4.2 °F 1.4 °F 92% 30.07 in 2.0 mi NW 3.5 mph - 0.00 in Snow Light Snow
9:01 AM 3.2 °F -4.2 °F 1.4 °F 92% 30.07 in 1.8 mi NW 3.5 mph - 0.00 in Snow Light Snow
9:08 AM 5.0 °F -4.1 °F 1.4 °F 85% 30.07 in 3.0 mi NW 4.6 mph - 0.00 in   Overcast
9:47 AM 6.8 °F -2.0 °F 3.2 °F 85% 30.07 in 10.0 mi West 4.6 mph - 0.00 in   Mostly Cloudy
9:52 AM 7.0 °F -1.7 °F 3.0 °F 84% 30.31 in 10.0 mi West 4.6 mph - 0.00 in   Mostly Cloudy
10:21 AM 8.6 °F 0.1 °F 3.2 °F 79% 30.08 in 10.0 mi West 4.6 mph - N/A   Scattered Clouds
10:52 AM 10.9 °F - 3.9 °F 73% 30.34 in 10.0 mi Calm Calm - N/A   Clear
11:52 AM 10.9 °F 4.7 °F 5.0 °F 77% 30.32 in 10.0 mi SW 3.5 mph - N/A   Partly Cloudy
12:52 PM 14.0 °F - 6.1 °F 71% 30.26 in 10.0 mi Calm Calm - N/A   Scattered Clouds
1:52 PM 14.0 °F 8.2 °F 6.1 °F 71% 30.25 in 10.0 mi SSW 3.5 mph - N/A   Clear
2:52 PM 15.1 °F 9.4 °F 6.1 °F 68% 30.27 in 10.0 mi WSW 3.5 mph - N/A   Clear
3:52 PM 14.0 °F 3.9 °F 3.9 °F 64% 30.31 in 10.0 mi West 6.9 mph - N/A   Scattered Clouds
4:52 PM 6.1 °F -2.8 °F -0.9 °F 73% 30.37 in 10.0 mi West 4.6 mph - N/A   Clear
5:52 PM - - - N/A% 30.08 in - North - - N/A   Unknown
6:52 PM -6.0 °F -18.6 °F -9.9 °F 83% 30.51 in 10.0 mi NE 5.8 mph - N/A   Clear
7:52 PM -16.1 °F -26.2 °F -18.9 °F 87% 30.55 in 10.0 mi NNW 3.5 mph - N/A   Clear
8:28 PM -22.0 °F - -25.6 °F 83% 30.10 in 6.0 mi Calm Calm - N/A   Scattered Clouds
8:33 PM -22.0 °F - -27.4 °F 76% 30.10 in 2.5 mi Calm Calm - N/A   Haze
8:41 PM -22.0 °F -35.6 °F -25.6 °F 83% 30.10 in 1.0 mi West 4.6 mph - N/A   Mist
8:48 PM -20.2 °F - -23.8 °F 83% 30.10 in 0.2 mi Calm Calm - N/A Fog Light Freezing Fog
8:52 PM -18.9 °F - -22.0 °F 86% 30.56 in 0.2 mi Calm Calm - N/A Fog Light Freezing Fog
9:52 PM -15.0 °F -31.0 °F -20.0 °F 78% 30.55 in 0.2 mi WNW 6.9 mph - N/A   Haze
10:40 PM -18.4 °F -33.4 °F -23.8 °F 76% 30.15 in 1.2 mi West 5.8 mph - N/A   Haze
10:52 PM -18.0 °F -33.0 °F -23.1 °F 78% 30.56 in 0.5 mi West 5.8 mph - N/A   Haze
11:52 PM -20.0 °F -33.3 °F -25.1 °F 78% 30.58 in 0.5 mi SW 4.6 mph - N/A   Haze